When you browse on this site, cookies collect data to enhance your experience and personalize the content and advertising you see.
Visit our Privacy Policy to learn more. By continuing to use the site, you agree to this use of cookies and data.
  • In Sweden
  • List of Countries
  • For 7 days
  • Water Temperature
  • Satellite Maps
  • Weather Map
  • Weather Widgets
  • user-avatar
    Login

    Hourly Weather Szekszard

    Today, 20 November, Tuesday

    Time Temperature Precipitation Wind Pressure Humidity
    00:00 0°C° 0 mm 4 mps 754 mmHg 81%
    01:00 +1°C° 0 mm 4 mps 754 mmHg 80%
    02:00 +1°C° 0.7 mm 5 mps 754 mmHg 81%
    03:00 +1°C° 0.7 mm 5 mps 753 mmHg 82%
    04:00 +1°C° 0.7 mm 6 mps 753 mmHg 83%
    05:00 +1°C° 1.2 mm 6 mps 752 mmHg 84%
    06:00 +1°C° 1.2 mm 6 mps 752 mmHg 85%
    07:00 0°C° 0 mm 7 mps 751 mmHg 86%
    08:00 +1°C° 0.7 mm 6 mps 751 mmHg 84%
    09:00 +2°C° 0.7 mm 6 mps 751 mmHg 82%
    10:00 +2°C° 0.7 mm 6 mps 751 mmHg 80%
    11:00 +2°C° 1 mm 5 mps 751 mmHg 82%
    12:00 +3°C° 1 mm 5 mps 751 mmHg 84%
    13:00 +4°C° 1 mm 4 mps 751 mmHg 86%
    14:00 +4°C° 0 mm 4 mps 751 mmHg 86%
    15:00 +4°C° 0 mm 4 mps 751 mmHg 85%
    16:00 +4°C° 0 mm 4 mps 751 mmHg 85%
    17:00 +4°C° 0 mm 4 mps 751 mmHg 86%
    18:00 +4°C° 0 mm 4 mps 751 mmHg 86%
    19:00 +4°C° 0 mm 3 mps 751 mmHg 87%
    20:00 +4°C° 0.1 mm 3 mps 751 mmHg 88%
    21:00 +4°C° 0.1 mm 3 mps 752 mmHg 89%
    22:00 +4°C° 0.1 mm 3 mps 752 mmHg 91%
    23:00 +4°C° 0.2 mm 3 mps 752 mmHg 91%

    Tomorrow, 21 November, Wednesday

    Time Temperature Precipitation Wind Pressure Humidity
    00:00 +4°C° 0.2 mm 3 mps 752 mmHg 91%
    01:00 +4°C° 0.2 mm 3 mps 752 mmHg 92%
    02:00 +4°C° 0.3 mm 3 mps 752 mmHg 92%
    03:00 +4°C° 0.3 mm 3 mps 752 mmHg 92%
    04:00 +4°C° 0.3 mm 3 mps 752 mmHg 91%
    05:00 +5°C° 0.5 mm 2 mps 752 mmHg 92%
    06:00 +5°C° 0.5 mm 2 mps 752 mmHg 92%
    07:00 +5°C° 0.5 mm 2 mps 753 mmHg 92%
    08:00 +5°C° 0.3 mm 2 mps 753 mmHg 90%
    09:00 +6°C° 0.3 mm 2 mps 753 mmHg 89%
    10:00 +6°C° 0.3 mm 2 mps 754 mmHg 87%
    11:00 +7°C° 0.1 mm 2 mps 754 mmHg 85%
    12:00 +7°C° 0.1 mm 2 mps 754 mmHg 83%
    13:00 +7°C° 0.1 mm 2 mps 754 mmHg 82%
    14:00 +8°C° 0 mm 1 mps 754 mmHg 83%
    15:00 +8°C° 0 mm 1 mps 754 mmHg 84%
    16:00 +8°C° 0 mm 1 mps 754 mmHg 86%
    17:00 +8°C° 0 mm 1 mps 755 mmHg 87%
    18:00 +8°C° 0 mm 1 mps 755 mmHg 88%
    19:00 +7°C° 0 mm 1 mps 755 mmHg 89%
    20:00 +7°C° 0 mm 1 mps 755 mmHg 89%
    21:00 +7°C° 0 mm 1 mps 756 mmHg 90%
    22:00 +7°C° 0 mm 1 mps 756 mmHg 91%
    23:00 +7°C° 0 mm 1 mps 756 mmHg 91%

    Day after tomorrow, 22 November, Thursday

    Time Temperature Precipitation Wind Pressure Humidity
    00:00 +7°C° 0 mm 1 mps 756 mmHg 91%
    01:00 +7°C° 0 mm 1 mps 756 mmHg 91%
    02:00 +7°C° 0 mm 1 mps 756 mmHg 92%
    03:00 +6°C° 0 mm 1 mps 756 mmHg 92%
    04:00 +6°C° 0 mm 1 mps 756 mmHg 93%
    05:00 +6°C° 0 mm 1 mps 756 mmHg 93%
    06:00 +6°C° 0 mm 1 mps 757 mmHg 93%
    07:00 +6°C° 0 mm 1 mps 757 mmHg 93%
    08:00 +7°C° 0 mm 1 mps 757 mmHg 90%
    09:00 +7°C° 0 mm 1 mps 757 mmHg 86%
    10:00 +8°C° 0 mm 1 mps 758 mmHg 83%
    11:00 +8°C° 0 mm 1 mps 758 mmHg 81%
    12:00 +9°C° 0 mm 1 mps 758 mmHg 79%
    13:00 +9°C° 0 mm 1 mps 758 mmHg 77%
    14:00 +9°C° 0 mm 1 mps 758 mmHg 78%
    15:00 +9°C° 0 mm 1 mps 758 mmHg 80%
    16:00 +9°C° 0 mm 1 mps 758 mmHg 82%
    17:00 +8°C° 0 mm 1 mps 758 mmHg 83%
    18:00 +8°C° 0 mm 1 mps 759 mmHg 83%
    19:00 +8°C° 0 mm 1 mps 759 mmHg 84%
    20:00 +8°C° 0 mm 1 mps 759 mmHg 85%
    21:00 +8°C° 0 mm 1 mps 759 mmHg 85%
    22:00 +7°C° 0 mm 0 mps 760 mmHg 85%
    23:00 +8°C° 0 mm 1 mps 760 mmHg 86%

    23 November, Friday

    Time Temperature Precipitation Wind Pressure Humidity
    00:00 +7°C° 0 mm 1 mps 760 mmHg 87%
    01:00 +7°C° 0 mm 1 mps 760 mmHg 88%
    02:00 +7°C° 0 mm 1 mps 760 mmHg 88%
    03:00 +7°C° 0 mm 1 mps 760 mmHg 89%
    04:00 +7°C° 0 mm 1 mps 760 mmHg 89%
    05:00 +6°C° 0 mm 1 mps 760 mmHg 89%
    06:00 +6°C° 0 mm 1 mps 761 mmHg 89%
    07:00 +6°C° 0 mm 1 mps 761 mmHg 89%
    08:00 +7°C° 0 mm 1 mps 761 mmHg 85%
    09:00 +8°C° 0 mm 1 mps 761 mmHg 81%
    10:00 +9°C° 0 mm 1 mps 762 mmHg 77%
    11:00 +9°C° 0 mm 1 mps 761 mmHg 74%
    12:00 +10°C° 0 mm 1 mps 761 mmHg 70%
    13:00 +11°C° 0 mm 1 mps 761 mmHg 67%
    14:00 +10°C° 0 mm 1 mps 761 mmHg 70%
    15:00 +9°C° 0 mm 2 mps 761 mmHg 73%
    16:00 +8°C° 0 mm 2 mps 760 mmHg 76%
    17:00 +8°C° 0 mm 2 mps 760 mmHg 78%
    18:00 +7°C° 0 mm 2 mps 760 mmHg 80%
    19:00 +7°C° 0 mm 2 mps 760 mmHg 82%
    20:00 +6°C° 0 mm 2 mps 760 mmHg 83%
    21:00 +6°C° 0 mm 2 mps 760 mmHg 85%
    22:00 +6°C° 0 mm 2 mps 760 mmHg 86%
    23:00 +5°C° 0 mm 2 mps 760 mmHg 87%

    24 November, Saturday

    Time Temperature Precipitation Wind Pressure Humidity
    00:00 +5°C° 0 mm 2 mps 759 mmHg 88%
    01:00 +4°C° 0 mm 3 mps 759 mmHg 89%
    02:00 +4°C° 0 mm 3 mps 758 mmHg 89%
    03:00 +3°C° 0 mm 3 mps 758 mmHg 89%
    04:00 +3°C° 0 mm 3 mps 757 mmHg 90%
    05:00 +3°C° 0 mm 3 mps 757 mmHg 88%
    06:00 +3°C° 0 mm 3 mps 757 mmHg 87%
    07:00 +4°C° 0 mm 3 mps 756 mmHg 86%
    08:00 +4°C° 0 mm 4 mps 756 mmHg 82%
    09:00 +5°C° 0 mm 4 mps 756 mmHg 79%
    10:00 +6°C° 0 mm 4 mps 756 mmHg 75%
    11:00 +7°C° 0 mm 4 mps 755 mmHg 73%
    12:00 +7°C° 0 mm 4 mps 755 mmHg 71%
    13:00 +8°C° 0 mm 4 mps 754 mmHg 68%
    14:00 +8°C° 0.1 mm 4 mps 754 mmHg 70%
    15:00 +7°C° 0.1 mm 4 mps 754 mmHg 71%
    16:00 +7°C° 0.1 mm 4 mps 753 mmHg 73%
    17:00 +7°C° 0 mm 4 mps 753 mmHg 73%
    18:00 +7°C° 0 mm 4 mps 753 mmHg 73%
    19:00 +7°C° 0 mm 4 mps 752 mmHg 72%
    20:00 +7°C° 0.1 mm 4 mps 752 mmHg 73%
    21:00 +7°C° 0.1 mm 4 mps 752 mmHg 74%
    22:00 +7°C° 0.1 mm 4 mps 752 mmHg 75%
    23:00 +7°C° 0.4 mm 4 mps 752 mmHg 77%

    25 November, Sunday

    Time Temperature Precipitation Wind Pressure Humidity
    00:00 +7°C° 0.4 mm 4 mps 752 mmHg 79%
    01:00 +9°C° 0.4 mm 3 mps 751 mmHg 81%
    02:00 +9°C° 0.4 mm 3 mps 751 mmHg 84%
    03:00 +8°C° 0.4 mm 3 mps 751 mmHg 87%
    04:00 +8°C° 0.4 mm 3 mps 751 mmHg 90%
    05:00 +8°C° 0.1 mm 2 mps 751 mmHg 91%
    06:00 +8°C° 0.1 mm 2 mps 751 mmHg 93%
    07:00 +9°C° 0.1 mm 1 mps 751 mmHg 94%
    08:00 +10°C° 0 mm 1 mps 751 mmHg 89%
    09:00 +10°C° 0 mm 2 mps 751 mmHg 85%
    10:00 +12°C° 0 mm 2 mps 751 mmHg 80%
    11:00 +12°C° 0 mm 2 mps 751 mmHg 75%
    12:00 +13°C° 0 mm 2 mps 751 mmHg 70%
    13:00 +13°C° 0 mm 2 mps 751 mmHg 65%
    14:00 +12°C° 0 mm 2 mps 750 mmHg 67%
    15:00 +12°C° 0 mm 1 mps 750 mmHg 69%
    16:00 +11°C° 0 mm 1 mps 750 mmHg 71%
    17:00 +11°C° 0 mm 1 mps 750 mmHg 72%
    18:00 +10°C° 0 mm 1 mps 750 mmHg 73%
    19:00 +10°C° 0 mm 1 mps 751 mmHg 74%
    20:00 +9°C° 0 mm 1 mps 751 mmHg 75%
    21:00 +9°C° 0 mm 1 mps 751 mmHg 75%
    22:00 +9°C° 0 mm 1 mps 751 mmHg 75%
    23:00 +9°C° 0 mm 1 mps 751 mmHg 75%
    Show more